Regional Weather Roundup
Issued by NWS

Home | Current Version | Previous Version | Graphics & Text | Print | Product List | Glossary On
Versions: 1 2 3 4 5 6 7 8 9 10 11 12 13 14 15 16 17 18 19 20 21 22 23 24 25 26 27
000
ASUS45 KCYS 230110
RWRWY

WYOMING REGIONAL WEATHER ROUNDUP
NATIONAL WEATHER SERVICE CHEYENNE WY
700 PM MDT SUN APR 22 2018

NOTE:  "FAIR" INDICATES FEW OR NO CLOUDS BELOW 12,000 FEET
WITH NO SIGNIFICANT WEATHER AND/OR OBSTRUCTIONS TO VISIBILITY.

WYZ001-230200-
YELLOWSTONE NATIONAL PARK

CITY           SKY/WX    TMP DP  RH WIND       PRES   REMARKS
LK YELLOWSTONE   N/A     43  27  53 CALM      30.12F
W YELLOWSTONE  NOT AVBL

$$
WYZ002>013-054>058-071-098>099-230200-
NORTHERN WYOMING

CITY           SKY/WX    TMP DP  RH WIND       PRES   REMARKS
JACKSON        FAIR      59  27  29 W5        30.04F
CODY           FAIR      63  29  27 N10       30.02S
GREYBULL       FAIR      72  30  21 NE6       29.94F
WORLAND        FAIR      67  31  26 NE9       29.93F
SHERIDAN       FAIR      65  40  39 NE13      30.01S
BUFFALO        FAIR      64  40  41 N15       30.04R
GILLETTE       FAIR      66  39  37 E9        30.02R
HULETT         FAIR      63  37  39 E9        30.07S
NEWCASTLE      FAIR      64  32  29 S12G21    30.05S

$$
WYZ014>020-022>026-101>103-230200-
CENTRAL WYOMING

CITY           SKY/WX    TMP DP  RH WIND       PRES   REMARKS
BIG PINEY      FAIR      63  20  19 W10       30.07F
PINEDALE       FAIR      59  25  27 N9G17     30.08S
DUBOIS         FAIR      55  19  24 W8        30.08S
LANDER         FAIR      67  27  22 N5        29.96F
RIVERTON       FAIR      68  25  19 CALM      29.98F
CASPER         FAIR      64  33  31 E15       30.01F
DOUGLAS        FAIR      64  36  35 SE12      30.04F

$$
WYZ021-027>030-104>119-230200-
SOUTHERN WYOMING

CITY           SKY/WX    TMP DP  RH WIND       PRES   REMARKS
EVANSTON       FAIR      62  22  21 W16       30.07F
KEMMERER       FAIR      63  21  20 W12       30.08S
FORT BRIDGER   FAIR      67  17  15 W14       30.09S
ROCK SPRINGS   FAIR      63  17  17 SW8       30.06F
DIXON          FAIR      64  25  22 W6        30.10F
RAWLINS          N/A    N/A N/A N/A MISG      30.06F
SARATOGA       FAIR      63  19  19 SW6       30.09F
LARAMIE        MOCLDY    56  33  42 SE12      30.11S
CHEYENNE       FAIR      57  30  35 E13       30.11S
TORRINGTON     FAIR      61  36  39 SE9       30.06S
PINE BLUFFS    FAIR      59  32  36 E8        30.10S

$$




USA.gov is the U.S. government's official web portal to all federal, state and local government web resources and services.